GW1374 Weather Reports


time (UTC)temp
C
wind
direction
speed
KPH
gust
KPH
rain 1hr
cm
rain 24hr
cm
rain mn
cm
humidity
%
barometer
mb
20260504044546 8 241 3.2 6.4 0.00 0.00 0.00 55 1009.7
20260504043052 8 241 1.6 4.8 0.00 0.00 0.00 54 1009.8
20260504041540 8 212 1.6 4.8 0.00 0.00 0.00 55 1009.8
20260504040045 8 239 1.6 4.8 0.00 0.00 0.00 54 1009.7
20260504034543 9 232 1.6 4.8 0.00 0.00 0.00 53 1009.7
20260504033049 9 209 1.6 3.2 0.00 0.00 0.00 52 1009.9
20260504031542 9 205 0.0 3.2 0.00 0.00 0.00 52 1009.8
20260504030046 10 0 0.0 4.8 0.00 0.00 0.00 52 1009.9
20260504024545 10 252 1.6 4.8 0.00 0.00 0.00 50 1010.1
20260504023043 10 304 1.6 4.8 0.00 0.00 0.00 51 1010.1
20260504021546 10 325 1.6 8.0 0.00 0.00 0.00 51 1010.2
20260504020126 10 298 1.6 8.0 0.00 0.00 0.00 50 1010.2
20260504014559 10 313 1.6 8.0 0.00 0.00 0.00 52 1010.1
20260504013055 10 0 1.6 6.4 0.00 0.00 0.00 52 1010.0
20260504011547 9 321 1.6 4.8 0.00 0.00 0.00 52 1010.0
20260504010048 10 34 1.6 4.8 0.00 0.00 0.00 51 1009.9
20260504004618 10 22 1.6 6.4 0.00 0.00 0.00 50 1009.7
20260504003052 10 293 3.2 8.0 0.00 0.00 0.00 49 1009.7
20260504001616 10 315 3.2 6.4 0.00 0.00 0.00 49 1009.5
20260504000046 10 309 0.0 4.8 0.00 0.00 0.00 47 1009.3
20260503234546 10 0 0.0 3.2 0.00 0.00 0.00 46 1009.0
20260503233044 11 273 1.6 4.8 0.00 0.00 0.00 44 1009.1
20260503231547 11 265 1.6 6.4 0.00 0.00 0.00 44 1008.9
20260503230107 11 309 1.6 4.8 0.00 0.00 0.00 44 1008.9
20260503224545 11 287 3.2 6.4 0.00 0.00 0.00 44 1009.0
20260503223048 11 93 1.6 9.7 0.00 0.00 0.00 43 1008.9
20260503221544 11 217 1.6 4.8 0.00 0.00 0.00 44 1009.1
20260503220049 11 254 6.4 14.5 0.00 0.00 0.00 42 1009.2
20260503214544 11 298 3.2 12.9 0.00 0.00 0.00 43 1009.2
20260503213044 11 72 3.2 11.3 0.00 0.00 0.00 43 1009.2
20260503211548 10 269 8.0 20.9 0.00 0.00 0.00 46 1009.2
20260503210046 10 303 6.4 14.5 0.00 0.00 0.00 45 1009.2
20260503204541 10 319 3.2 16.1 0.00 0.00 0.00 45 1009.4
20260503203059 11 18 4.8 16.1 0.00 0.00 0.00 44 1009.3
20260503201543 11 178 3.2 17.7 0.00 0.00 0.00 43 1009.3
20260503200041 11 314 8.0 16.1 0.00 0.00 0.00 39 1009.3
20260503194545 11 261 4.8 14.5 0.00 0.00 0.00 39 1009.4
20260503193047 11 265 6.4 17.7 0.00 0.00 0.00 38 1009.5
20260503191547 11 292 6.4 14.5 0.00 0.00 0.00 36 1009.7
20260503190046 11 325 4.8 16.1 0.00 0.00 0.00 38 1009.8
20260503184543 12 9 4.8 17.7 0.00 0.00 0.00 36 1009.8
20260503183040 11 9 4.8 12.9 0.00 0.00 0.00 39 1009.9
20260503181554 11 17 6.4 17.7 0.00 0.00 0.00 36 1010.3
20260503180052 11 325 6.4 17.7 0.00 0.00 0.00 40 1010.4
20260503174546 11 298 3.2 12.9 0.00 0.00 0.00 39 1010.6
20260503173044 10 319 4.8 16.1 0.00 0.00 0.00 39 1010.8
20260503171541 10 307 4.8 11.3 0.00 0.00 0.00 38 1011.0
20260503081555 2 301 1.6 6.4 0.00 0.00 0.00 78 1011.1